Date_and_time,latitude,longitude,wind_speed,RelWindDirFrom,WindDirFrom,air_pressure,air_temperature,relative_humidity,Temp,platform_speed_wrt_ground,air_pressure_at_mean_sea_level,platform_orientation
2018-05-11 23:50,50.6304183333333,-96.98076,4.2,8.1,159,991.92,5.3,50,5.79,0.0,1019.32,152.4
2018-05-12 00:00,50.6304166666667,-96.9807633333333,6.2,8.1,165,991.90,7.1,42,5.85,0.0,1019.18,360.0
2018-05-12 00:10,50.6304183333333,-96.980765,6.0,7.0,154,991.92,7.7,45,6.07,0.0,1019.18,360.0
2018-05-12 00:20,50.6304183333333,-96.98077,5.1,5.8,168,991.96,7.3,48,6.31,0.0,1019.29,360.0
2018-05-12 00:30,50.6304216666667,-96.98078,4.8,5.8,172,992.03,7.7,45,6.47,0.0,1019.35,360.0
2018-05-12 00:40,50.6304283333333,-96.9807816666667,4.3,5.2,170,991.99,8.0,41,6.58,0.0,1019.27,360.0
2018-05-12 00:50,50.630435,-96.9807766666667,4.7,5.3,166,991.92,8.5,36,6.71,0.0,1019.15,360.0
2018-05-12 01:00,50.6304383333333,-96.9807733333333,4.9,5.5,174,991.89,8.5,37,6.81,0.0,1019.13,20.1
2018-05-12 01:10,50.630415,-96.9807516666667,5.1,5.9,182,991.92,8.8,34,6.92,0.0,1019.17,20.1
2018-05-12 01:20,50.63042,-96.9807783333333,4.8,5.6,185,991.95,9.0,32,7.07,0.0,1019.20,20.1
2018-05-12 01:30,50.6304233333333,-96.98078,6.0,7.1,186,991.98,9.1,34,7.01,0.0,1019.23,20.1
2018-05-12 01:40,50.6304216666667,-96.980775,6.4,7.2,188,991.99,9.2,34,6.86,0.0,1019.23,20.1
2018-05-12 01:50,50.63042,-96.9807766666667,7.4,8.3,193,992.05,9.2,33,6.66,0.0,1019.21,20.1
2018-05-12 02:00,50.63042,-96.9807766666667,6.3,7.5,195,992.12,9.5,31,6.82,0.0,1019.24,216.6
2018-05-12 02:10,50.6304283333333,-96.980765,6.2,7.3,198,992.20,9.8,30,7.01,0.0,1019.33,216.6
2018-05-12 02:20,50.6304266666667,-96.9807666666667,6.1,7.1,198,992.30,10.0,29,7.12,0.0,1019.40,216.6
2018-05-12 02:30,50.6304283333333,-96.9807666666667,6.3,7.3,199,992.38,10.0,30,7.23,0.0,1019.47,216.6
2018-05-12 02:40,50.6304216666667,-96.980765,6.3,7.3,197,992.45,10.0,30,7.32,0.0,1019.52,216.6
2018-05-12 02:50,50.63042,-96.98079,7.0,8.0,195,992.55,9.9,31,7.34,0.0,1019.63,216.6
2018-05-12 03:00,50.630415,-96.9807683333333,7.0,8.2,199,992.68,9.7,32,7.34,0.0,1019.76,0.0
2018-05-12 03:10,50.630415,-96.980775,7.0,8.0,199,992.72,9.5,32,7.35,0.0,1019.79,0.0
2018-05-12 03:20,50.6303983333333,-96.9807766666667,6.7,7.9,199,992.76,9.3,33,7.34,0.0,1019.84,0.0
2018-05-12 03:30,50.6304083333333,-96.9807816666667,6.7,7.9,203,992.76,9.4,32,7.35,0.0,1019.83,0.0
2018-05-12 03:40,50.6304066666667,-96.980785,5.9,7.4,209,992.79,9.5,33,7.38,0.0,1019.85,0.0
2018-05-12 03:50,50.6304033333333,-96.9807833333333,4.5,5.8,223,992.87,9.4,31,7.35,0.0,1019.93,0.0
2018-05-12 04:00,50.6304033333333,-96.9807816666667,4.2,5.1,229,992.87,9.2,31,7.31,0.0,1019.92,192.2
2018-05-12 04:10,50.630405,-96.9807833333333,4.3,4.9,231,992.96,8.7,32,7.34,0.0,1020.03,192.2
2018-05-12 04:20,50.6304066666667,-96.9807816666667,4.5,5.2,235,993.00,8.3,33,7.32,0.0,1020.09,192.2
2018-05-12 04:30,50.6304083333333,-96.9807816666667,4.8,5.6,230,992.88,8.0,34,7.27,0.0,1019.98,192.2
2018-05-12 04:40,50.6304083333333,-96.98077,4.6,5.5,239,992.86,8.1,33,7.17,0.0,1019.97,192.2
2018-05-12 04:50,50.6304166666667,-96.980755,4.5,5.4,244,992.94,8.1,33,7.07,0.0,1020.05,192.2
2018-05-12 05:00,50.6304483333333,-96.9807583333333,4.8,5.6,244,993.02,7.9,33,6.96,0.0,1020.16,20.1
2018-05-12 05:10,50.630445,-96.9807616666667,5.4,6.1,246,993.06,7.8,32,6.85,0.0,1020.21,20.1
2018-05-12 05:20,50.6304383333333,-96.9807616666667,5.6,6.7,248,993.12,7.8,32,6.74,0.0,1020.27,20.1
2018-05-12 05:30,50.6304333333333,-96.9807666666667,5.8,6.7,249,993.14,7.9,31,6.68,0.0,1020.28,20.1
2018-05-12 05:40,50.6304266666667,-96.9807633333333,5.4,6.5,251,993.17,8.1,30,6.70,0.0,1020.30,20.1
2018-05-12 05:50,50.6304216666667,-96.9807616666667,5.7,7.0,257,993.23,8.0,30,6.68,0.0,1020.37,20.1
2018-05-12 06:00,50.63042,-96.9807633333333,5.6,7.2,260,993.27,8.0,31,6.74,0.0,1020.44,360.0
2018-05-12 06:10,50.6304183333333,-96.980765,6.0,7.1,255,993.28,7.9,30,6.87,0.0,1020.48,360.0
2018-05-12 06:20,50.6304166666667,-96.980765,5.8,6.8,252,993.24,7.7,31,6.97,0.0,1020.47,360.0
2018-05-12 06:30,50.63041,-96.9807866666667,5.9,6.9,250,993.21,7.6,31,7.05,0.0,1020.43,360.0
2018-05-12 06:40,50.6304083333333,-96.9807766666667,5.9,7.0,246,993.18,7.4,31,7.18,0.0,1020.41,360.0
2018-05-12 06:50,50.63041,-96.980775,6.0,7.0,246,993.20,7.3,31,7.17,0.0,1020.45,360.0
2018-05-12 07:00,50.6304116666667,-96.9807716666667,6.1,7.0,245,993.20,7.1,31,7.17,0.0,1020.46,36.6
2018-05-12 07:10,50.6304283333333,-96.9807816666667,5.9,6.9,245,993.15,7.0,32,7.13,0.0,1020.42,36.6
2018-05-12 07:20,50.630415,-96.9807616666667,5.8,6.6,248,993.20,6.7,33,7.13,0.0,1020.48,36.6
2018-05-12 07:30,50.6304166666667,-96.9807666666667,5.9,6.8,245,993.20,6.2,34,7.13,0.0,1020.49,36.6
2018-05-12 07:40,50.6304133333333,-96.9807516666667,5.4,6.2,245,993.18,5.9,35,7.04,0.0,1020.49,36.6
2018-05-12 07:50,50.6304133333333,-96.9807566666667,5.1,6.2,247,993.19,6.1,35,7.15,0.0,1020.49,36.6
2018-05-12 08:00,50.63041,-96.9807616666667,5.4,6.2,238,993.19,5.9,35,7.22,0.0,1020.51,360.0
2018-05-12 08:10,50.63041,-96.98076,5.5,6.2,238,993.14,5.7,35,7.24,0.0,1020.47,360.0
2018-05-12 08:20,50.6304266666667,-96.98075,5.2,5.9,243,993.12,5.8,34,7.25,0.0,1020.45,360.0
2018-05-12 08:30,50.63043,-96.9807633333333,4.9,5.9,246,993.07,6.2,33,7.21,0.0,1020.39,360.0
2018-05-12 08:40,50.6304233333333,-96.9807683333333,4.3,5.9,246,993.08,6.3,33,7.07,0.0,1020.41,360.0
2018-05-12 08:50,50.63042,-96.9807533333333,3.6,4.9,249,993.08,5.9,35,7.00,0.0,1020.43,360.0
2018-05-12 09:00,50.6304433333333,-96.980735,4.7,6.5,252,993.09,5.9,34,6.97,0.0,1020.44,43.2
2018-05-12 09:10,50.6304466666667,-96.980745,5.1,6.5,250,993.08,5.8,34,6.90,0.0,1020.45,43.2
2018-05-12 09:20,50.6304333333333,-96.98075,6.2,8.7,252,993.05,6.0,33,6.82,0.0,1020.44,43.2
2018-05-12 09:30,50.630435,-96.980755,6.4,8.2,252,993.09,6.1,34,6.84,0.0,1020.49,43.2
2018-05-12 09:40,50.630435,-96.980755,6.7,8.2,256,993.08,6.0,34,6.91,0.0,1020.48,43.2
2018-05-12 09:50,50.6304566666667,-96.9807466666667,6.4,8.0,253,993.05,6.0,34,7.02,0.0,1020.46,43.2
2018-05-12 10:00,50.6304133333333,-96.9807716666667,6.7,7.9,250,993.10,5.9,34,7.08,0.0,1020.52,0.0
2018-05-12 10:10,50.63042,-96.9807533333333,7.0,8.4,245,993.09,5.8,35,7.11,0.0,1020.51,0.0
2018-05-12 10:20,50.6304433333333,-96.98075,6.7,7.9,243,993.12,5.7,35,7.13,0.0,1020.52,0.0
2018-05-12 10:30,50.6304366666667,-96.980745,6.3,7.9,250,993.15,5.9,35,7.14,0.0,1020.55,0.0
2018-05-12 10:40,50.6304366666667,-96.9807466666667,6.4,8.8,252,993.23,5.9,35,7.14,0.0,1020.64,0.0
2018-05-12 10:50,50.6304366666667,-96.9807466666667,7.0,8.5,254,993.26,5.9,34,7.13,0.0,1020.68,0.0
2018-05-12 11:00,50.63044,-96.98075,6.5,8.0,249,993.30,5.8,35,7.11,0.0,1020.72,360.0
2018-05-12 11:10,50.63044,-96.9807516666667,6.4,7.9,247,993.29,5.9,34,7.10,0.0,1020.71,360.0
2018-05-12 11:20,50.63044,-96.9807533333333,6.3,7.8,246,993.33,6.4,33,7.08,0.0,1020.71,360.0
2018-05-12 11:30,50.63044,-96.980755,6.5,7.5,239,993.41,6.5,33,7.05,0.0,1020.79,360.0
2018-05-12 11:40,50.6304383333333,-96.9807533333333,6.1,7.8,241,993.52,6.4,34,7.05,0.0,1020.91,360.0
2018-05-12 11:50,50.6304366666667,-96.9807533333333,6.1,8.7,242,993.59,6.5,33,7.02,0.0,1020.99,360.0
2018-05-12 12:00,50.6304366666667,-96.9807533333333,6.8,8.6,236,993.65,6.9,33,6.97,0.0,1021.03,240.8
2018-05-12 12:10,50.630435,-96.9807533333333,7.1,9.7,234,993.77,7.2,34,6.92,0.0,1021.15,240.8
2018-05-12 12:20,50.630435,-96.9807516666667,7.2,10.0,243,993.83,7.5,34,6.93,0.0,1021.18,240.8
2018-05-12 12:30,50.630435,-96.9807516666667,7.5,10.2,235,993.88,8.0,34,6.91,0.0,1021.21,240.8
2018-05-12 12:40,50.630445,-96.9807633333333,7.1,9.5,231,993.83,8.7,33,6.91,0.0,1021.13,240.8
2018-05-12 12:50,50.6304366666667,-96.98076,7.9,11.7,234,993.81,9.8,32,6.90,0.0,1021.05,240.8
2018-05-12 13:00,50.63044,-96.9807633333333,8.6,11.7,235,993.86,10.4,29,6.89,0.0,1021.07,13.3
2018-05-12 13:10,50.63044,-96.98076,8.2,11.0,231,993.83,10.6,28,6.89,0.0,1021.01,13.3
2018-05-12 13:20,50.630405,-96.9807733333333,9.8,15.0,240,993.80,10.7,27,6.89,0.0,1020.96,13.3
2018-05-12 13:30,50.6304266666667,-96.9807683333333,8.8,12.1,235,993.73,10.7,27,6.89,0.0,1020.90,13.3
2018-05-12 13:40,50.6304416666667,-96.9807633333333,9.5,12.9,231,993.73,10.6,27,6.86,0.0,1020.90,13.3
2018-05-12 13:50,50.6304366666667,-96.9807716666667,8.0,11.2,241,993.66,10.9,27,6.82,0.0,1020.79,13.3
2018-05-12 14:00,50.6304366666667,-96.980765,6.5,8.9,235,993.53,11.6,27,6.79,0.0,1020.60,234.7
2018-05-12 14:10,50.6304216666667,-96.98076,9.4,13.6,233,993.49,12.4,23,6.78,0.0,1020.52,234.7
2018-05-12 14:20,50.6304383333333,-96.9807666666667,8.6,11.4,231,993.48,13.0,22,6.78,0.0,1020.45,234.7
2018-05-12 14:30,50.6304316666667,-96.98076,9.2,12.0,223,993.46,13.4,21,6.78,0.0,1020.38,234.7
2018-05-12 14:40,50.6304333333333,-96.98076,8.3,11.6,230,993.37,13.8,19,6.79,0.0,1020.22,234.7
2018-05-12 14:50,50.630435,-96.98076,9.5,12.4,216,993.37,14.0,18,6.80,0.0,1020.17,234.7
2018-05-12 15:00,50.6304316666667,-96.9807583333333,9.6,13.6,210,993.28,14.1,19,6.82,0.0,1020.07,228.3
2018-05-12 15:10,50.630435,-96.9807633333333,8.1,11.8,217,993.17,14.5,18,6.83,0.0,1019.94,228.3
2018-05-12 15:20,50.630445,-96.98078,7.3,12.0,222,993.13,14.7,18,6.85,0.0,1019.88,228.3
2018-05-12 15:30,50.6304416666667,-96.980765,7.1,11.3,209,993.14,14.9,18,6.89,0.0,1019.89,228.3
2018-05-12 15:40,50.63044,-96.9807616666667,7.8,12.4,228,993.19,15.3,16,6.92,0.0,1019.91,228.3
2018-05-12 15:50,50.6304383333333,-96.98076,5.0,12.5,179,993.20,14.3,25,6.94,0.0,1019.93,228.3
2018-05-12 16:00,50.6304116666667,-96.9807433333333,6.9,10.5,133,993.20,10.1,44,6.95,0.0,1020.09,152.8
2018-05-12 16:10,50.6304266666667,-96.9807566666667,4.1,8.5,141,993.11,10.9,37,6.97,0.0,1019.93,152.8
2018-05-12 16:20,50.6304316666667,-96.9807583333333,5.2,13.5,187,992.98,12.5,25,6.99,0.0,1019.71,152.8
2018-05-12 16:30,50.630435,-96.9807766666667,8.1,13.4,204,992.92,15.2,17,7.03,0.0,1019.50,152.8
2018-05-12 16:40,50.630435,-96.9807633333333,7.9,14.4,207,992.77,15.6,18,7.04,0.0,1019.32,152.8
2018-05-12 16:50,50.630435,-96.9807633333333,9.1,15.3,221,992.72,16.2,16,7.06,0.0,1019.24,152.8
2018-05-12 17:00,50.6304366666667,-96.9807666666667,8.4,14.1,217,992.65,16.3,16,7.10,0.0,1019.14,0.0
2018-05-12 17:10,50.6304366666667,-96.980765,11.0,14.9,212,992.50,16.4,15,7.12,0.0,1018.96,0.0
2018-05-12 17:20,50.6304383333333,-96.9807616666667,9.7,14.6,215,992.42,16.7,15,7.18,0.0,1018.87,0.0
2018-05-12 17:30,50.6304366666667,-96.9807616666667,11.1,17.1,211,992.37,16.7,15,7.28,0.0,1018.79,0.0
2018-05-12 17:40,50.630435,-96.9807633333333,10.4,15.9,211,992.25,16.8,15,7.34,0.0,1018.71,0.0
2018-05-12 17:50,50.630435,-96.9807633333333,12.6,17.8,212,992.19,16.9,15,7.36,0.0,1018.84,0.0
2018-05-12 18:00,50.630435,-96.9807616666667,11.6,16.8,224,992.15,17.3,13,7.40,0.0,1018.74,38.0
2018-05-12 18:10,50.630435,-96.9807616666667,11.4,16.2,223,992.05,17.5,12,7.44,0.0,1018.56,38.0
2018-05-12 18:20,50.6304333333333,-96.9807616666667,9.4,14.8,222,991.94,17.6,12,7.46,0.0,1018.31,38.0
2018-05-12 18:30,50.6304333333333,-96.9807616666667,10.5,19.6,211,991.80,17.6,13,7.47,0.0,1018.15,38.0
2018-05-12 18:40,50.63044,-96.9807616666667,10.0,15.7,229,991.61,17.9,12,7.51,0.0,1017.92,38.0
2018-05-12 18:50,50.6304383333333,-96.9807633333333,9.5,16.6,228,991.47,18.0,12,7.55,0.0,1017.77,38.0
2018-05-12 19:00,50.6304333333333,-96.9807766666667,10.4,18.7,218,991.34,18.0,12,7.57,0.0,1017.62,311.6
2018-05-12 19:10,50.6304366666667,-96.98077,10.3,17.9,227,991.12,18.2,12,7.66,0.0,1017.38,311.6
2018-05-12 19:20,50.630415,-96.980755,13.1,20.9,222,991.03,18.3,12,7.75,0.0,1017.28,311.6
2018-05-12 19:30,50.6304483333333,-96.9807533333333,12.1,18.9,244,990.86,18.9,11,7.84,0.0,1017.08,311.6
2018-05-12 19:40,50.6304366666667,-96.9807533333333,10.9,17.7,239,990.57,18.9,11,7.88,0.0,1016.77,311.6
2018-05-12 19:50,50.6304333333333,-96.98075,12.6,21.9,242,990.43,19.1,11,7.92,0.0,1016.59,311.6
2018-05-12 20:00,50.6304366666667,-96.9807533333333,10.7,15.7,221,990.24,19.0,11,7.95,0.0,1016.40,90.0
2018-05-12 20:10,50.6304366666667,-96.980755,13.4,23.2,235,990.07,19.3,11,7.99,0.0,1016.21,90.0
2018-05-12 20:20,50.630435,-96.9807566666667,10.8,18.7,224,989.95,19.3,12,8.03,0.0,1016.09,90.0
2018-05-12 20:30,50.6304366666667,-96.9807566666667,11.4,21.5,234,989.75,19.5,11,8.04,0.0,1015.86,90.0
2018-05-12 20:40,50.6304383333333,-96.9807566666667,13.7,21.4,233,989.60,19.8,11,8.10,0.0,1015.69,90.0
2018-05-12 20:50,50.63044,-96.9807566666667,10.9,22.7,221,989.38,19.7,11,8.14,0.0,1015.46,90.0
2018-05-12 21:00,50.63044,-96.9807566666667,12.9,20.6,228,989.25,19.9,11,8.16,0.0,1015.31,360.0
2018-05-12 21:10,50.6304416666667,-96.9807566666667,15.1,21.7,229,989.10,20.0,11,8.20,0.0,1015.15,360.0
2018-05-12 21:20,50.63044,-96.980755,14.5,20.1,220,988.93,19.9,11,8.23,0.0,1014.95,360.0
2018-05-12 21:30,50.6304466666667,-96.9807666666667,13.0,20.5,233,988.82,20.1,11,8.27,0.0,1014.83,360.0
2018-05-12 21:40,50.630455,-96.9807733333333,13.4,22.6,230,988.72,20.2,11,8.29,0.0,1014.71,360.0
2018-05-12 21:50,50.6304266666667,-96.980755,12.4,17.2,236,988.64,20.3,11,8.30,0.0,1014.63,360.0
2018-05-12 22:00,50.63043,-96.9807566666667,14.5,23.5,233,988.56,20.5,11,8.31,0.0,1014.53,125.3
2018-05-12 22:10,50.6304283333333,-96.9807366666667,13.3,21.7,235,988.41,20.7,11,8.34,0.0,1014.37,125.3
2018-05-12 22:20,50.6304283333333,-96.980745,14.1,21.0,228,988.32,20.6,11,8.37,0.0,1014.26,125.3
2018-05-12 22:30,50.63043,-96.9807516666667,12.5,19.3,229,988.21,20.7,11,8.38,0.0,1014.14,125.3
2018-05-12 22:40,50.6304283333333,-96.9807566666667,11.2,17.1,229,988.15,20.9,11,8.44,0.0,1014.07,125.3
2018-05-12 22:50,50.6304283333333,-96.9807566666667,12.2,17.9,228,988.02,20.9,11,8.47,0.0,1013.93,125.3
2018-05-12 23:00,50.6304316666667,-96.980755,13.0,20.6,227,987.86,20.8,11,8.49,0.0,1013.76,228.3
2018-05-12 23:10,50.6304316666667,-96.9807566666667,12.5,16.6,226,987.71,20.9,11,8.51,0.0,1013.61,228.3
2018-05-12 23:20,50.6304333333333,-96.9807733333333,12.8,18.2,222,987.57,20.9,11,8.51,0.0,1013.46,228.3
2018-05-12 23:30,50.6304483333333,-96.9807716666667,11.4,17.2,230,987.48,21.0,11,8.52,0.0,1013.35,228.3
